Saturday, November 18, 2017, 1:19 AM EST
Back to Local

KVAY, Mt Holly South Jersey Rgnl

Location: Medford, NJ, United States Lat: 39.933
Local Time: 1:19 AM EST ( 6:19 GMT) Lon: -74.833
Time Zone: US/Eastern Elev: 52 ft

Show me the last for .
Show Coded

Time T Td Feel RH Dir Speed Gust Alt SLP Vis Weather Sky Remarks
2017-11-18 00:54 29 25 - 84 - Calm - 30.06 30.06 10 6-hr Min Temp (1am): 28.0°F
6-hr Max Temp (1am): 37.9°F
2017-11-17 23:54 28 25 - 88 - Calm - 30.08 30.08 10 CLR 24-hr Min Temp (12am): 28.0°F
24-hr Max Temp (12am): 48.9°F
2017-11-17 22:54 29 26 - 88 - Calm - 30.10 30.10 10 CLR None
2017-11-17 21:54 30 26 - 84 - Calm - 30.11 30.11 10 CLR None
2017-11-17 20:54 33 26 30 75 150° 3 - 30.12 30.12 10 CLR None
2017-11-17 19:54 35 25 - 66 - Calm - 30.11 30.11 10 CLR None
2017-11-17 18:54 35 25 32 66 260° 3 - 30.12 30.12 10 CLR 6-hr Min Temp (7pm): 35.1°F
6-hr Max Temp (7pm): 48.9°F
2017-11-17 17:54 38 25 - 59 - Calm - 30.12 30.11 10 CLR None
2017-11-17 16:54 46 22 45 38 310° 3 - 30.11 30.11 10 CLR None
2017-11-17 15:54 48 22 44 35 310° 8 - 30.10 30.09 10 CLR None
2017-11-17 14:54 49 23 45 35 290° 8 - 30.10 30.10 10 CLR None
2017-11-17 13:54 49 25 42 38 320° 8 18 30.10 30.09 0 CLR None
2017-11-17 12:54 47 25 39 41 270° 12 21 30.12 30.11 10 CLR 6-hr Min Temp (1pm): 39.0°F
6-hr Max Temp (1pm): 48.0°F
2017-11-17 11:54 47 25 39 41 290° 12 22 30.12 30.12 10 CLR None
2017-11-17 10:54 45 25 37 45 300° 13 21 30.12 30.12 10 CLR None
2017-11-17 09:54 44 25 34 46 290° 16 28 30.15 30.14 10 CLR None
2017-11-17 08:54 43 26 34 50 320° 13 23 30.13 30.13 10 CLR None
2017-11-17 07:54 41 27 32 57 300° 10 18 30.13 30.12 10 CLR None
2017-11-17 06:54 40 27 35 59 330° 7 - 30.09 30.09 10 CLR 6-hr Min Temp (7am): 39.9°F
6-hr Max Temp (7am): 45.0°F
2017-11-17 05:54 42 29 38 59 300° 7 - 30.06 30.06 10 FEW043 None
2017-11-17 04:54 43 28 34 55 300° 10 21 30.05 30.04 10 BKN047 None
2017-11-17 03:54 44 29 40 55 300° 7 - 30.03 30.03 10 OVC048 None
2017-11-17 02:54 44 31 39 59 290° 9 - 30.01 30.01 10 OVC048 None
2017-11-17 01:54 42 31 38 64 280° 7 - 30.00 29.99 10 FEW060 None

Support USWX by starting your Amazon purchase here.